DLH1561 UDYZ-EDDF

Flight info

Callsign DLH1561
Flight time N/A
Altitude 36000
Route INDUR N161 ELTOX UB374 ERZ UL746 ODERO DCT OPT DCT ENIMA DCT TEGRI DCT ARSIN DCT SUBEN DCT AKINI T161 DEBHI DEBHI1B
Aircraft A21N/M-SDE2E3FGHIRWXY/LB1

Departure

Time 2026-05-04 13:20
Airport Zvartnots International Airport (UDYZ)

Arrival

Time N/A
Airport Frankfurt Main Airport (EDDF)
Time Latitude Longitude Altitude Speed Heading
2026-05-04 12:50 40.15091 44.39935 2825 ft 0 kts 360°
2026-05-04 13:04 40.15067 44.39935 2825 ft 4 kts 360°
2026-05-04 13:05 40.15040 44.39936 2825 ft 4 kts 359°
2026-05-04 13:05 40.15019 44.39934 2826 ft 4 kts 22°
2026-05-04 13:05 40.14999 44.39914 2825 ft 4 kts 50°
2026-05-04 13:05 40.14990 44.39900 2826 ft 1 kts 48°
2026-05-04 13:06 40.14989 44.39899 2827 ft 0 kts 48°
2026-05-04 13:08 40.14991 44.39913 2825 ft 4 kts 95°
2026-05-04 13:08 40.14987 44.39964 2827 ft 7 kts 94°
2026-05-04 13:08 40.14984 44.40042 2826 ft 10 kts 91°
2026-05-04 13:08 40.14983 44.40146 2826 ft 13 kts 88°
2026-05-04 13:09 40.14984 44.40275 2827 ft 16 kts 90°
2026-05-04 13:09 40.14986 44.40428 2828 ft 18 kts 88°
2026-05-04 13:09 40.14987 44.40575 2829 ft 14 kts 88°
2026-05-04 13:09 40.14988 44.40715 2833 ft 17 kts 89°
2026-05-04 13:10 40.14987 44.40877 2832 ft 19 kts 89°
2026-05-04 13:10 40.14990 44.41050 2832 ft 20 kts 88°
2026-05-04 13:10 40.14990 44.41223 2831 ft 20 kts 86°
2026-05-04 13:10 40.14990 44.41407 2834 ft 19 kts 86°
2026-05-04 13:11 40.14992 44.41577 2836 ft 15 kts 87°
2026-05-04 13:11 40.14975 44.41697 2836 ft 13 kts 123°
2026-05-04 13:11 40.14930 44.41744 2837 ft 1 kts 147°
2026-05-04 13:11 40.14920 44.41751 2837 ft 3 kts 149°
2026-05-04 13:12 40.14896 44.41769 2837 ft 5 kts 148°
2026-05-04 13:12 40.14853 44.41804 2838 ft 9 kts 148°
2026-05-04 13:12 40.14758 44.41831 2839 ft 17 kts 221°
2026-05-04 13:12 40.14744 44.41776 2838 ft 2 kts 271°
2026-05-04 13:13 40.14744 44.41775 2838 ft 0 kts 271°
2026-05-04 13:16 40.14744 44.41774 2838 ft 0 kts 271°
2026-05-04 13:19 40.14744 44.41745 2838 ft 20 kts 271°
2026-05-04 13:19 40.14739 44.41242 2831 ft 89 kts 269°
2026-05-04 13:19 40.14731 44.40185 2828 ft 138 kts 270°
2026-05-04 13:19 40.14724 44.38774 2893 ft 166 kts 272°
2026-05-04 13:20 40.14749 44.37273 3400 ft 166 kts 271°
2026-05-04 13:20 40.14727 44.35732 3834 ft 172 kts 271°
2026-05-04 13:20 40.14703 44.34137 4237 ft 183 kts 268°
2026-05-04 13:20 40.14620 44.32394 4617 ft 201 kts 269°
2026-05-04 13:21 40.14533 44.30496 5099 ft 219 kts 268°
2026-05-04 13:21 40.14440 44.28389 5408 ft 245 kts 267°
2026-05-04 13:21 40.14336 44.26109 5853 ft 263 kts 267°
2026-05-04 13:21 40.14226 44.23689 6543 ft 270 kts 266°
2026-05-04 13:22 40.14114 44.21224 7279 ft 273 kts 265°
2026-05-04 13:22 40.14000 44.18726 8069 ft 277 kts 265°
2026-05-04 13:22 40.13885 44.16207 8939 ft 278 kts 264°
2026-05-04 13:22 40.13769 44.13665 9756 ft 281 kts 264°
2026-05-04 13:23 40.13650 44.11080 10343 ft 293 kts 263°
2026-05-04 13:23 40.13522 44.08340 10675 ft 312 kts 263°
2026-05-04 13:23 40.13385 44.05450 11186 ft 324 kts 263°
2026-05-04 13:23 40.13248 44.02488 11880 ft 329 kts 263°
2026-05-04 13:24 40.13110 43.99498 12642 ft 332 kts 262°
2026-05-04 13:24 40.12971 43.96452 13345 ft 337 kts 262°
2026-05-04 13:24 40.12833 43.93419 14001 ft 341 kts 262°
2026-05-04 13:25 40.12533 43.87172 15347 ft 346 kts 261°
2026-05-04 13:25 40.12380 43.84019 16018 ft 349 kts 261°
2026-05-04 13:25 40.12227 43.80836 16711 ft 351 kts 261°
2026-05-04 13:25 40.12074 43.77636 17398 ft 354 kts 261°
2026-05-04 13:26 40.11916 43.74417 18066 ft 356 kts 260°
2026-05-04 13:26 40.11758 43.71173 18643 ft 358 kts 260°
2026-05-04 13:26 40.11596 43.67914 19224 ft 361 kts 260°
2026-05-04 13:26 40.11430 43.64625 19784 ft 364 kts 260°
2026-05-04 13:27 40.11256 43.61318 20329 ft 366 kts 260°
2026-05-04 13:27 40.11081 43.57991 20892 ft 368 kts 260°
2026-05-04 13:27 40.10901 43.54689 21448 ft 370 kts 259°
2026-05-04 13:27 40.10719 43.51326 21998 ft 372 kts 259°
2026-05-04 13:28 40.10540 43.47941 22545 ft 374 kts 259°
2026-05-04 13:28 40.10356 43.44544 23100 ft 375 kts 259°
2026-05-04 13:28 40.10172 43.41138 23594 ft 377 kts 259°
2026-05-04 13:28 40.09986 43.37712 24007 ft 380 kts 259°
2026-05-04 13:29 40.09800 43.34262 24458 ft 380 kts 259°
2026-05-04 13:29 40.09603 43.30817 24922 ft 381 kts 259°
2026-05-04 13:29 40.09403 43.27367 25383 ft 381 kts 258°
2026-05-04 13:29 40.09206 43.23920 25822 ft 382 kts 259°
2026-05-04 13:30 40.09007 43.20449 26283 ft 385 kts 258°
2026-05-04 13:30 40.08808 43.16958 26679 ft 385 kts 258°
2026-05-04 13:30 40.08607 43.13463 27096 ft 387 kts 258°
2026-05-04 13:30 40.08408 43.09956 27534 ft 387 kts 258°
2026-05-04 13:31 40.08204 43.06448 27934 ft 388 kts 258°
2026-05-04 13:31 40.08001 43.02936 28289 ft 389 kts 258°
2026-05-04 13:31 40.07792 42.99397 28633 ft 391 kts 257°
2026-05-04 13:31 40.07584 42.95847 28990 ft 393 kts 258°
2026-05-04 13:32 40.07376 42.92287 29336 ft 394 kts 257°
2026-05-04 13:32 40.07169 42.88767 29694 ft 395 kts 258°
2026-05-04 13:32 40.06971 42.85174 30044 ft 397 kts 258°
2026-05-04 13:32 40.06771 42.81569 30315 ft 399 kts 258°
2026-05-04 13:33 40.06562 42.77946 30565 ft 401 kts 258°
2026-05-04 13:33 40.06343 42.74306 30808 ft 404 kts 258°
2026-05-04 13:33 40.06120 42.70643 31086 ft 406 kts 257°
2026-05-04 13:33 40.05896 42.66954 31276 ft 409 kts 257°
2026-05-04 13:34 40.05668 42.63236 31484 ft 412 kts 257°
2026-05-04 13:34 40.05439 42.59500 31695 ft 414 kts 257°
2026-05-04 13:34 40.05207 42.55740 31905 ft 416 kts 258°
2026-05-04 13:34 40.04976 42.51971 32108 ft 418 kts 258°
2026-05-04 13:35 40.04742 42.48166 32364 ft 419 kts 258°
2026-05-04 13:35 40.04261 42.40589 32871 ft 419 kts 258°
2026-05-04 13:35 40.04001 42.36810 33101 ft 419 kts 257°
2026-05-04 13:36 40.03739 42.33022 33327 ft 419 kts 257°
2026-05-04 13:36 40.03472 42.29238 33597 ft 419 kts 257°
2026-05-04 13:36 40.03204 42.25458 33846 ft 418 kts 258°
2026-05-04 13:36 40.02937 42.21678 34051 ft 419 kts 258°
2026-05-04 13:37 40.02675 42.17936 34190 ft 420 kts 258°
2026-05-04 13:37 40.02410 42.14131 34318 ft 422 kts 258°
2026-05-04 13:37 40.02146 42.10306 34480 ft 422 kts 258°
2026-05-04 13:38 40.01601 42.02677 34773 ft 423 kts 258°
2026-05-04 13:38 40.01326 41.98853 34916 ft 423 kts 258°
2026-05-04 13:38 40.01051 41.95026 35079 ft 424 kts 258°
2026-05-04 13:38 40.00780 41.91199 35229 ft 423 kts 258°
2026-05-04 13:39 40.00601 41.88665 35339 ft 424 kts 258°
2026-05-04 13:39 40.00233 41.83535 35501 ft 425 kts 258°
2026-05-04 13:39 40.00045 41.80988 35577 ft 426 kts 258°
2026-05-04 13:39 39.99759 41.77140 35717 ft 426 kts 258°
2026-05-04 13:40 39.99478 41.73297 35848 ft 426 kts 258°
2026-05-04 13:40 39.98935 41.65591 35932 ft 427 kts 258°
2026-05-04 13:41 39.98396 41.57885 35909 ft 427 kts 258°
2026-05-04 13:41 39.97845 41.50176 35905 ft 426 kts 258°
2026-05-04 13:42 39.96971 41.38621 35914 ft 427 kts 258°
2026-05-04 13:42 39.96417 41.30976 35912 ft 427 kts 258°
2026-05-04 13:43 39.95953 41.23203 35927 ft 432 kts 265°
2026-05-04 13:43 39.96272 41.19261 35911 ft 444 kts 276°
2026-05-04 13:43 39.97192 41.15385 35909 ft 452 kts 285°
2026-05-04 13:44 39.99586 41.07797 35907 ft 452 kts 286°
2026-05-04 13:44 40.01972 41.00205 35904 ft 452 kts 285°
2026-05-04 13:45 40.04304 40.92593 35923 ft 453 kts 285°
2026-05-04 13:45 40.06640 40.84925 35898 ft 455 kts 286°
2026-05-04 13:46 40.09003 40.77250 35875 ft 455 kts 286°
2026-05-04 13:46 40.11367 40.69572 35882 ft 455 kts 286°
2026-05-04 13:47 40.13706 40.61896 35890 ft 454 kts 286°
2026-05-04 13:47 40.16031 40.54214 35859 ft 455 kts 286°
2026-05-04 13:48 40.18343 40.46566 35859 ft 455 kts 286°
2026-05-04 13:48 40.20660 40.38855 35877 ft 454 kts 287°
2026-05-04 13:49 40.22979 40.31142 35847 ft 455 kts 287°
2026-05-04 13:49 40.25290 40.23433 35852 ft 455 kts 287°
2026-05-04 13:50 40.27594 40.15720 35833 ft 455 kts 286°
2026-05-04 13:50 40.29898 40.07973 35846 ft 456 kts 287°
2026-05-04 13:51 40.32178 40.00217 35828 ft 456 kts 286°
2026-05-04 13:51 40.34449 39.92466 35820 ft 455 kts 287°
2026-05-04 13:52 40.37921 39.80837 35827 ft 458 kts 287°
2026-05-04 13:53 40.40220 39.73035 35819 ft 458 kts 287°
2026-05-04 13:53 40.42491 39.65273 35824 ft 458 kts 287°
2026-05-04 13:54 40.45915 39.53485 35826 ft 459 kts 287°
2026-05-04 13:55 40.49303 39.41701 35804 ft 460 kts 287°
2026-05-04 13:55 40.52664 39.29954 35799 ft 462 kts 287°
2026-05-04 13:56 40.54927 39.22072 35808 ft 460 kts 288°
2026-05-04 13:57 40.58324 39.10224 35797 ft 461 kts 287°
2026-05-04 13:58 40.62800 38.94397 35809 ft 463 kts 288°
2026-05-04 13:58 40.66169 38.82535 35810 ft 463 kts 288°
2026-05-04 13:59 40.68376 38.74592 35808 ft 461 kts 287°
2026-05-04 14:00 40.71641 38.62667 35815 ft 461 kts 287°
2026-05-04 14:00 40.74913 38.50744 35816 ft 461 kts 287°
2026-05-04 14:01 40.76368 38.45424 35816 ft 461 kts 287°